Location: Newark
(44.2003°N, 3.2583°E)
Time: 22:29:28
(UTC+00:00)

SR - Pass Details

Date: 27 October 2019
Orbit: 574 x 882 km, 66.7° (Epoch: 11 November)

Event Time Altitude Azimuth Distance (km) Brightness Sun altitude
Rises 22:38:59 0° 282° (WNW) 3,225 - -56.8°
Reaches altitude 10° 22:43:14 10° 315° (NW) 2,382 - -57.1°
Maximum altitude 22:45:05 12° 335° (NNW) 2,302 - -57.2°
Drops below altitude 10° 22:46:58 10° 354° (N) 2,445 - -57.3°
Sets 22:51:31 0° 27° (NNE) 3,442 - -57.6°
